TimeMDT,TemperatureF,Dew PointF,Humidity,Sea Level PressureIn,VisibilityMPH,Wind Direction,Wind SpeedMPH,Gust SpeedMPH,PrecipitationIn,Events,Conditions,WindDirDegrees,DateUTC
12:53 AM,55.9,32.0,40,29.96,10.0,NNW,3.5,-,N/A,,Clear,330,2013-08-17 06:53:00
1:53 AM,52.0,30.9,45,29.97,10.0,West,3.5,-,N/A,,Clear,280,2013-08-17 07:53:00
2:53 AM,50.0,30.0,46,29.98,10.0,West,4.6,-,N/A,,Clear,260,2013-08-17 08:53:00
3:53 AM,48.9,28.0,44,29.98,10.0,East,4.6,-,N/A,,Clear,90,2013-08-17 09:53:00
4:53 AM,48.0,26.1,42,29.99,10.0,SE,4.6,-,N/A,,Clear,140,2013-08-17 10:53:00
5:53 AM,50.0,24.1,36,29.99,10.0,NW,3.5,-,N/A,,Clear,320,2013-08-17 11:53:00
6:53 AM,50.0,28.0,43,30.00,10.0,Calm,Calm,-,N/A,,Clear,0,2013-08-17 12:53:00
7:53 AM,55.9,28.0,34,30.03,10.0,Calm,Calm,-,N/A,,Clear,0,2013-08-17 13:53:00
8:53 AM,60.1,26.1,27,30.04,10.0,Calm,Calm,-,N/A,,Clear,0,2013-08-17 14:53:00
9:53 AM,71.1,23.0,16,30.02,10.0,Calm,Calm,-,N/A,,Clear,0,2013-08-17 15:53:00
10:53 AM,82.0,19.0,10,29.99,10.0,WSW,10.4,-,N/A,,Clear,240,2013-08-17 16:53:00
11:53 AM,87.1,21.0,9,29.96,10.0,West,10.4,18.4,N/A,,Clear,280,2013-08-17 17:53:00
12:53 PM,87.1,18.0,8,29.95,10.0,West,11.5,20.7,N/A,,Clear,260,2013-08-17 18:53:00
1:53 PM,87.1,18.0,8,29.94,10.0,WNW,9.2,20.7,N/A,,Clear,300,2013-08-17 19:53:00
2:53 PM,88.0,19.0,8,29.92,10.0,WSW,12.7,19.6,N/A,,Clear,240,2013-08-17 20:53:00
3:53 PM,89.1,16.0,7,29.91,10.0,WSW,13.8,23.0,N/A,,Clear,250,2013-08-17 21:53:00
4:53 PM,89.1,12.9,6,29.90,10.0,WNW,15.0,21.9,N/A,,Clear,300,2013-08-17 22:53:00
5:53 PM,88.0,15.1,7,29.89,10.0,NNW,5.8,-,N/A,,Clear,340,2013-08-17 23:53:00
6:53 PM,86.0,16.0,7,29.89,10.0,NNW,6.9,-,N/A,,Clear,340,2013-08-18 00:53:00
7:53 PM,77.0,19.9,12,29.91,10.0,North,6.9,-,N/A,,Clear,10,2013-08-18 01:53:00
8:53 PM,70.0,19.9,15,29.92,10.0,NE,8.1,-,N/A,,Clear,50,2013-08-18 02:53:00
9:53 PM,62.1,23.0,22,29.91,10.0,Calm,Calm,-,N/A,,Clear,0,2013-08-18 03:53:00
10:53 PM,69.1,25.0,19,29.87,10.0,WSW,6.9,-,N/A,,Clear,240,2013-08-18 04:53:00
11:53 PM,69.1,34.0,27,29.87,10.0,WSW,13.8,-,N/A,,Clear,250,2013-08-18 05:53:00